Terminal Aerodrome Forecast
Issued by NWS

Home | Current Version | Previous Version | Text Only | Print | Product List | Glossary Off
Versions: 1 2 3 4 5 6 7 8 9 10 11 12

000
FTUS42 KMHX 261123
TAFOAJ
TAF
KOAJ 261123Z 2612/2712 01003KT P6SM SKC
     FM270700 VRB03KT 5SM BR SKC
      AMD LTD TO CLD VIS AND WIND=

USA.gov is the U.S. government's official web portal to all federal, state and local government web resources and services.